2014-12-09 00:01:21 r, 17.43m,0000000009Hz,0000051662c,0000000.112s,-003.9C,00002191
2014-12-09 00:11:21 r, 17.31m,0000000010Hz,0000046085c,0000000.100s,-003.9C,00002191
2014-12-09 00:21:20 r, 17.20m,0000000011Hz,0000041981c,0000000.091s,-004.2C,00002191
2014-12-09 00:31:23 r, 17.12m,0000000012Hz,0000038813c,0000000.084s,-003.9C,00002191
2014-12-09 00:41:21 r, 17.09m,0000000013Hz,0000037533c,0000000.081s,-003.9C,00002191
2014-12-09 00:51:24 r, 17.09m,0000000012Hz,0000037400c,0000000.081s,-003.9C,00002191
2014-12-09 01:01:23 r, 16.98m,0000000014Hz,0000033821c,0000000.073s,-003.9C,00002191
2014-12-09 01:11:22 r, 16.93m,0000000014Hz,0000032481c,0000000.070s,-003.9C,00002191
2014-12-09 01:21:23 r, 16.76m,0000000016Hz,0000027697c,0000000.060s,-004.2C,00002191
2014-12-09 01:31:22 r, 16.67m,0000000018Hz,0000025455c,0000000.055s,-004.2C,00002191
2014-12-09 01:41:21 r, 16.50m,0000000021Hz,0000022003c,0000000.048s,-004.2C,00002191
2014-12-09 01:51:21 r, 16.47m,0000000022Hz,0000021231c,0000000.046s,-003.9C,00002191
2014-12-09 02:01:22 r, 16.44m,0000000022Hz,0000020816c,0000000.045s,-003.9C,00002191
2014-12-09 02:11:21 r, 16.46m,0000000021Hz,0000021113c,0000000.046s,-003.9C,00002191
2014-12-09 02:21:22 r, 16.40m,0000000023Hz,0000019975c,0000000.043s,-003.9C,00002191
2014-12-09 02:31:21 r, 16.38m,0000000023Hz,0000019589c,0000000.043s,-003.9C,00002191
2014-12-09 02:41:22 r, 16.32m,0000000025Hz,0000018475c,0000000.040s,-004.2C,00002191
2014-12-09 02:51:21 r, 16.44m,0000000022Hz,0000020742c,0000000.045s,-004.2C,00002191
2014-12-09 03:01:23 r, 16.57m,0000000020Hz,0000023349c,0000000.051s,-003.9C,00002191
2014-12-09 03:11:21 r, 16.60m,0000000019Hz,0000023880c,0000000.052s,-003.9C,00002191
2014-12-09 03:21:23 r, 16.68m,0000000018Hz,0000025789c,0000000.056s,-003.9C,00002191
2014-12-09 03:31:20 r, 16.78m,0000000016Hz,0000028163c,0000000.061s,-003.6C,00002191
2014-12-09 03:41:22 r, 16.86m,0000000015Hz,0000030393c,0000000.066s,-003.3C,00002191
2014-12-09 03:51:21 r, 16.88m,0000000015Hz,0000030886c,0000000.067s,-003.3C,00002191
2014-12-09 04:01:22 r, 16.93m,0000000015Hz,0000032315c,0000000.070s,-003.3C,00002191
2014-12-09 04:11:22 r, 16.97m,0000000014Hz,0000033662c,0000000.073s,-003.3C,00002191
2014-12-09 04:21:22 r, 16.94m,0000000014Hz,0000032685c,0000000.071s,-003.3C,00002191
2014-12-09 04:31:21 r, 17.05m,0000000013Hz,0000036488c,0000000.079s,-003.3C,00002191
2014-12-09 04:41:23 r, 17.26m,0000000011Hz,0000043825c,0000000.095s,-003.3C,00002191
2014-12-09 04:51:21 r, 17.42m,0000000009Hz,0000051001c,0000000.111s,-003.3C,00002191
2014-12-09 05:01:23 r, 17.33m,0000000010Hz,0000046982c,0000000.102s,-003.3C,00002191
2014-12-09 05:11:22 r, 17.45m,0000000009Hz,0000052563c,0000000.114s,-003.0C,00002191
2014-12-09 05:21:23 r, 17.45m,0000000008Hz,0000052724c,0000000.114s,-003.0C,00002191
2014-12-09 05:31:25 r, 17.61m,0000000008Hz,0000060837c,0000000.132s,-003.0C,00002191
2014-12-09 05:41:22 r, 17.70m,0000000007Hz,0000066102c,0000000.143s,-003.0C,00002191
2014-12-09 05:51:21 r, 18.01m,0000000005Hz,0000087639c,0000000.190s,-003.0C,00002191
2014-12-09 06:01:22 r, 18.08m,0000000005Hz,0000093377c,0000000.203s,-003.3C,00002191
2014-12-09 06:11:22 r, 18.12m,0000000004Hz,0000097028c,0000000.211s,-003.3C,00002191
2014-12-09 06:21:23 r, 18.05m,0000000005Hz,0000091051c,0000000.198s,-003.3C,00002191
2014-12-09 06:31:21 r, 18.08m,0000000005Hz,0000094143c,0000000.204s,-003.3C,00002191
2014-12-09 06:41:23 r, 18.00m,0000000005Hz,0000087351c,0000000.190s,-003.3C,00002191
2014-12-09 06:51:21 r, 17.99m,0000000005Hz,0000086497c,0000000.188s,-003.3C,00002191
2014-12-09 07:01:23 r, 17.68m,0000000007Hz,0000064576c,0000000.140s,-003.6C,00002191
2014-12-09 07:11:20 r, 16.73m,0000000017Hz,0000026913c,0000000.058s,-003.6C,00002191
2014-12-09 07:21:22 r, 15.27m,0000000065Hz,0000007064c,0000000.015s,-003.6C,00002191
2014-12-09 07:31:21 r, 13.58m,0000000315Hz,0000000000c,0000000.000s,-003.6C,00002191
2014-12-09 07:41:22 r, 11.76m,0000001671Hz,0000000000c,0000000.000s,-003.3C,00002191
2014-12-09 07:51:20 r, 09.93m,0000009073Hz,0000000000c,0000000.000s,-003.3C,00002191
2014-12-09 08:01:22 r, 08.40m,0000037030Hz,0000000000c,0000000.000s,-003.0C,00002191
2014-12-09 08:11:22 r, 07.33m,0000098858Hz,0000000000c,0000000.000s,-002.6C,00002191
2014-12-09 08:21:23 r, 06.47m,0000219688Hz,0000000000c,0000000.000s,-002.0C,00002191
2014-12-09 08:31:21 r, 05.92m,0000361063Hz,0000000000c,0000000.000s,-001.7C,00002191
2014-12-09 08:41:23 r, 00.00m,0000596481Hz,0000000000c,0000000.000s,-001.0C,00002191
2014-12-09 08:51:21 r, 00.00m,0000597171Hz,0000000000c,0000000.000s,-000.4C,00002191
2014-12-09 09:01:22 r, 00.00m,0000597194Hz,0000000000c,0000000.000s, 000.6C,00002191
2014-12-09 09:11:21 r, 00.00m,0000597015Hz,0000000000c,0000000.000s, 001.6C,00002191
2014-12-09 09:21:22 r, 00.00m,0000597049Hz,0000000000c,0000000.000s, 002.2C,00002191
2014-12-09 09:31:20 r, 00.00m,0000597030Hz,0000000000c,0000000.000s, 002.9C,00002191
2014-12-09 09:41:21 r, 00.00m,0000597140Hz,0000000000c,0000000.000s, 003.5C,00002191
2014-12-09 09:51:22 r, 00.00m,0000596991Hz,0000000000c,0000000.000s, 003.8C,00002191
2014-12-09 10:01:20 r, 00.00m,0000596983Hz,0000000000c,0000000.000s, 004.1C,00002191
2014-12-09 10:11:22 r, 00.00m,0000596935Hz,0000000000c,0000000.000s, 004.8C,00002191
2014-12-09 10:21:21 r, 00.00m,0000596779Hz,0000000000c,0000000.000s, 004.8C,00002191
2014-12-09 10:31:21 r, 00.00m,0000596835Hz,0000000000c,0000000.000s, 005.1C,00002191
2014-12-09 10:41:21 r, 00.00m,0000596663Hz,0000000000c,0000000.000s, 005.4C,00002191
2014-12-09 10:51:23 r, 00.00m,0000596712Hz,0000000000c,0000000.000s, 005.8C,00002191
2014-12-09 11:01:21 r, 00.00m,0000596712Hz,0000000000c,0000000.000s, 006.1C,00002191
2014-12-09 11:11:23 r, 00.00m,0000596579Hz,0000000000c,0000000.000s, 006.7C,00002191
2014-12-09 11:21:21 r, 00.00m,0000596703Hz,0000000000c,0000000.000s, 007.7C,00002191
2014-12-09 11:31:23 r, 00.00m,0000596640Hz,0000000000c,0000000.000s, 008.3C,00002191
2014-12-09 11:41:23 r, 00.00m,0000596388Hz,0000000000c,0000000.000s, 009.0C,00002191
2014-12-09 11:51:22 r, 00.00m,0000596448Hz,0000000000c,0000000.000s, 009.3C,00002191
2014-12-09 12:01:20 r, 00.00m,0000596499Hz,0000000000c,0000000.000s, 009.3C,00002191
2014-12-09 12:11:20 r, 00.00m,0000596518Hz,0000000000c,0000000.000s, 008.0C,00002191
2014-12-09 12:21:23 r, 00.00m,0000596688Hz,0000000000c,0000000.000s, 007.4C,00002191
2014-12-09 12:31:21 r, 00.00m,0000596607Hz,0000000000c,0000000.000s, 007.0C,00002191
2014-12-09 12:41:22 r, 00.00m,0000596641Hz,0000000000c,0000000.000s, 007.0C,00002191
2014-12-09 12:51:22 r, 00.00m,0000596593Hz,0000000000c,0000000.000s, 006.7C,00002191
2014-12-09 13:01:22 r, 00.00m,0000596775Hz,0000000000c,0000000.000s, 006.4C,00002191
2014-12-09 13:11:22 r, 00.00m,0000596790Hz,0000000000c,0000000.000s, 006.1C,00002191
2014-12-09 13:21:22 r, 00.00m,0000596670Hz,0000000000c,0000000.000s, 006.4C,00002191
2014-12-09 13:31:21 r, 00.00m,0000596794Hz,0000000000c,0000000.000s, 006.1C,00002191
2014-12-09 13:41:23 r, 00.00m,0000596781Hz,0000000000c,0000000.000s, 006.1C,00002191
2014-12-09 13:51:20 r, 00.00m,0000596727Hz,0000000000c,0000000.000s, 005.8C,00002191
2014-12-09 14:01:23 r, 00.00m,0000596795Hz,0000000000c,0000000.000s, 006.1C,00002191
2014-12-09 14:11:21 r, 00.00m,0000596777Hz,0000000000c,0000000.000s, 006.1C,00002191
2014-12-09 14:21:22 r, 00.00m,0000596769Hz,0000000000c,0000000.000s, 006.1C,00002191
2014-12-09 14:31:20 r, 00.00m,0000596725Hz,0000000000c,0000000.000s, 006.1C,00002191
2014-12-09 14:41:22 r, 00.00m,0000596684Hz,0000000000c,0000000.000s, 006.1C,00002191
2014-12-09 14:51:20 r, 00.00m,0000596804Hz,0000000000c,0000000.000s, 006.1C,00002191
2014-12-09 15:01:22 r, 00.00m,0000596786Hz,0000000000c,0000000.000s, 005.8C,00002191
2014-12-09 15:11:20 r, 00.00m,0000596670Hz,0000000000c,0000000.000s, 005.8C,00002191
2014-12-09 15:21:23 r, 00.00m,0000596752Hz,0000000000c,0000000.000s, 005.8C,00002191
2014-12-09 15:31:20 r, 00.00m,0000596644Hz,0000000000c,0000000.000s, 005.8C,00002191
2014-12-09 15:41:23 r, 00.00m,0000572653Hz,0000000000c,0000000.000s, 006.1C,00002191
2014-12-09 15:51:21 r, 00.00m,0000468387Hz,0000000000c,0000000.000s, 006.4C,00002191
2014-12-09 16:01:22 r, 05.94m,0000357527Hz,0000000000c,0000000.000s, 006.1C,00002191
2014-12-09 16:11:20 r, 06.33m,0000248253Hz,0000000000c,0000000.000s, 005.8C,00002191
2014-12-09 16:21:20 r, 06.88m,0000149790Hz,0000000000c,0000000.000s, 005.4C,00002191
2014-12-09 16:31:20 r, 07.69m,0000071114Hz,0000000000c,0000000.000s, 004.8C,00002191
2014-12-09 16:41:21 r, 08.90m,0000023228Hz,0000000000c,0000000.000s, 004.8C,00002191
2014-12-09 16:51:21 r, 10.54m,0000005141Hz,0000000000c,0000000.000s, 004.5C,00002191
2014-12-09 17:01:20 r, 12.34m,0000000983Hz,0000000000c,0000000.000s, 004.1C,00002191
2014-12-09 17:11:22 r, 14.25m,0000000169Hz,0000000000c,0000000.000s, 004.1C,00002191
2014-12-09 17:21:20 r, 16.07m,0000000031Hz,0000014666c,0000000.032s, 004.1C,00002191
2014-12-09 17:31:22 r, 17.51m,0000000008Hz,0000055706c,0000000.121s, 004.1C,00002191
2014-12-09 17:41:20 r, 18.73m,0000000003Hz,0000170816c,0000000.371s, 004.1C,00002191
2014-12-09 17:51:23 r, 19.46m,0000000001Hz,0000334094c,0000000.725s, 004.1C,00002191
2014-12-09 18:01:20 r, 19.55m,0000000002Hz,0000361975c,0000000.786s, 004.5C,00002191
2014-12-09 18:11:20 r, 19.65m,0000000002Hz,0000394631c,0000000.856s, 004.5C,00002191
2014-12-09 18:21:22 r, 19.60m,0000000002Hz,0000378268c,0000000.821s, 004.8C,00002191
2014-12-09 18:31:21 r, 19.90m,0000000001Hz,0000499185c,0000001.083s, 004.8C,00002191
2014-12-09 18:41:25 r, 19.91m,0000000001Hz,0000503025c,0000001.092s, 005.1C,00002191
2014-12-09 18:51:22 r, 20.19m,0000000001Hz,0000648180c,0000001.407s, 004.8C,00002191
2014-12-09 19:01:20 r, 20.18m,0000000001Hz,0000639381c,0000001.388s, 004.8C,00002191
2014-12-09 19:11:22 r, 20.13m,0000000001Hz,0000611579c,0000001.327s, 004.8C,00002191
2014-12-09 19:21:20 r, 20.16m,0000000001Hz,0000632686c,0000001.373s, 004.8C,00002191
2014-12-09 19:31:22 r, 20.18m,0000000001Hz,0000641334c,0000001.392s, 004.8C,00002191
2014-12-09 19:41:21 r, 20.11m,0000000000Hz,0000604633c,0000001.312s, 005.1C,00002191
2014-12-09 19:51:23 r, 19.77m,0000000002Hz,0000439505c,0000000.954s, 005.1C,00002191
2014-12-09 20:01:20 r, 19.56m,0000000001Hz,0000364933c,0000000.792s, 005.1C,00002191
2014-12-09 20:11:23 r, 19.50m,0000000001Hz,0000346657c,0000000.752s, 005.4C,00002191
2014-12-09 20:21:21 r, 19.28m,0000000002Hz,0000284177c,0000000.617s, 005.4C,00002191
2014-12-09 20:31:22 r, 19.07m,0000000002Hz,0000233193c,0000000.506s, 005.8C,00002191
2014-12-09 20:41:20 r, 18.97m,0000000002Hz,0000212092c,0000000.460s, 005.8C,00002191
2014-12-09 20:51:22 r, 18.73m,0000000003Hz,0000170767c,0000000.371s, 006.1C,00002191
2014-12-09 21:01:20 r, 18.62m,0000000003Hz,0000154505c,0000000.335s, 006.1C,00002191
2014-12-09 21:11:22 r, 18.34m,0000000004Hz,0000119000c,0000000.258s, 006.1C,00002191
2014-12-09 21:21:21 r, 18.03m,0000000005Hz,0000089376c,0000000.194s, 006.1C,00002191
2014-12-09 21:31:23 r, 18.02m,0000000005Hz,0000088855c,0000000.193s, 006.4C,00002191
2014-12-09 21:41:21 r, 17.75m,0000000006Hz,0000069273c,0000000.150s, 006.4C,00002191
2014-12-09 21:51:23 r, 17.76m,0000000007Hz,0000070051c,0000000.152s, 006.4C,00002191
2014-12-09 22:01:20 r, 18.00m,0000000005Hz,0000087123c,0000000.189s, 006.7C,00002191
2014-12-09 22:11:21 r, 18.27m,0000000004Hz,0000111143c,0000000.241s, 006.7C,00002191
2014-12-09 22:21:20 r, 18.14m,0000000004Hz,0000098915c,0000000.215s, 006.7C,00002191
2014-12-09 22:31:22 r, 18.02m,0000000005Hz,0000088282c,0000000.192s, 006.7C,00002191
2014-12-09 22:41:20 r, 17.72m,0000000007Hz,0000067389c,0000000.146s, 007.0C,00002191
2014-12-09 22:51:22 r, 17.67m,0000000007Hz,0000064013c,0000000.139s, 007.0C,00002191
2014-12-09 23:01:20 r, 17.81m,0000000006Hz,0000073016c,0000000.158s, 007.0C,00002191
2014-12-09 23:11:20 r, 17.73m,0000000007Hz,0000067942c,0000000.147s, 007.4C,00002191
2014-12-09 23:21:23 r, 17.45m,0000000009Hz,0000052345c,0000000.114s, 007.4C,00002191
2014-12-09 23:31:23 r, 17.41m,0000000009Hz,0000050582c,0000000.110s, 007.4C,00002191
2014-12-09 23:41:20 r, 17.39m,0000000010Hz,0000049533c,0000000.107s, 007.4C,00002191
2014-12-09 23:51:23 r, 17.56m,0000000008Hz,0000057757c,0000000.125s, 007.7C,00002191
